HISTORICAL SENSOR DATA

Sensor Data Report

DB LIVE
CURRENT TIME--:--:--
DEVICE NETWORK Gateway Status
13 ESP · realtime ~1s · history 60s
Weather WS-MOD-01
OFFLINE
Actuator ACT-MOD-01
OFFLINE
Mainboard L3 MB-L3-01
OFFLINE
Mainboard L5 MB-L5-01
OFFLINE
Remote AC AC-REMOTE-01
OFFLINE
PZEM L3-01 PWR-L3-01
OFFLINE
PZEM L3-02 PWR-L3-02
OFFLINE
PZEM L3-03 PWR-L3-03
OFFLINE
PZEM L3-04 PWR-L3-04
OFFLINE
PZEM L5-01 PWR-L5-01
OFFLINE
PZEM L5-02 PWR-L5-02
OFFLINE
PZEM L5-03 PWR-L5-03
OFFLINE
PZEM L5-04 PWR-L5-04
OFFLINE
REPORT FILTER

Periode & Sensor

DATABASE HISTORY
RESET
QUICK RANGE Hari ini 7 hari 30 hari
PERIODE31 Aug 2026sampai 06 Sep 2026
TOTAL DATA40,859sensor readings
MINIMUM-0.50sesuai filter
AVERAGE59.90sesuai filter
MAXIMUM11,921.20sesuai filter
REPORT RESULT

Data Sensor

31/08/2026 — 06/09/2026 EXPORT CSV
NOTANGGALWAKTUDEVICECHANNELSENSORVALUEUNIT
11101 02/09/2026 14:55:31 MB-L3-01Mainboard Lantai 3 L3-BGT-01 Black Globe Temperature 1 29.80 °C
11102 02/09/2026 14:55:31 MB-L3-01Mainboard Lantai 3 L3-LUX-01 Illuminance / LUX 1 21.80 lux
11103 02/09/2026 14:55:31 MB-L3-01Mainboard Lantai 3 L3-RAD-02 Radiation 2 1.00 W/m²
11104 02/09/2026 14:55:31 MB-L5-01Mainboard Lantai 5 L5-SHT-03-RH SHT20 3 Humidity 49.70 %RH
11105 02/09/2026 14:55:31 MB-L5-01Mainboard Lantai 5 L5-HFT-02 Heat Flow Temperature 2 29.90 °C
11106 02/09/2026 14:55:31 MB-L3-01Mainboard Lantai 3 L3-SHT-03-T SHT20 3 Temperature 31.90 °C
11107 02/09/2026 14:55:31 MB-L5-01Mainboard Lantai 5 L5-HFT-01 Heat Flow Temperature 1 30.00 °C
11108 02/09/2026 14:55:31 MB-L5-01Mainboard Lantai 5 L5-AI-06 Analog Input 6 3.05 V
11109 02/09/2026 14:55:31 MB-L3-01Mainboard Lantai 3 L3-AI-04 Analog Input 4 3.12 V
11110 02/09/2026 14:55:29 MB-L5-01Mainboard Lantai 5 L5-AI-02 Analog Input 2 3.05 V
11111 02/09/2026 14:55:29 MB-L3-01Mainboard Lantai 3 L3-BGT-03 Black Globe Temperature 3 29.10 °C
11112 02/09/2026 14:55:29 MB-L3-01Mainboard Lantai 3 L3-LUX-05 Illuminance / LUX 5 35.30 lux
11113 02/09/2026 14:55:29 MB-L3-01Mainboard Lantai 3 L3-ST-02 Surface Temperature 2 29.80 °C
11114 02/09/2026 14:55:29 MB-L5-01Mainboard Lantai 5 L5-RAD-01 Radiation 1 1.00 W/m²
11115 02/09/2026 14:55:29 MB-L5-01Mainboard Lantai 5 L5-AI-01 Analog Input 1 3.05 V
11116 02/09/2026 14:55:29 MB-L5-01Mainboard Lantai 5 L5-SHT-02-T SHT20 2 Temperature 32.20 °C
11117 02/09/2026 14:55:29 MB-L3-01Mainboard Lantai 3 L3-AI-06 Analog Input 6 3.12 V
11118 02/09/2026 14:55:29 MB-L5-01Mainboard Lantai 5 L5-LUX-01 Illuminance / LUX 1 205.30 lux
11119 02/09/2026 14:55:29 MB-L3-01Mainboard Lantai 3 L3-LUX-06 Illuminance / LUX 6 31.30 lux
11120 02/09/2026 14:55:29 MB-L3-01Mainboard Lantai 3 L3-AI-01 Analog Input 1 3.12 V
11121 02/09/2026 14:55:29 MB-L5-01Mainboard Lantai 5 L5-LUX-05 Illuminance / LUX 5 383.60 lux
11122 02/09/2026 14:55:29 MB-L3-01Mainboard Lantai 3 L3-SHT-01-T SHT20 1 Temperature 32.10 °C
11123 02/09/2026 14:55:29 MB-L3-01Mainboard Lantai 3 L3-HFT-01 Heat Flow Temperature 1 29.40 °C
11124 02/09/2026 14:55:29 MB-L5-01Mainboard Lantai 5 L5-LUX-02 Illuminance / LUX 2 124.80 lux
11125 02/09/2026 14:55:29 MB-L5-01Mainboard Lantai 5 L5-BGT-03 Black Globe Temperature 3 29.80 °C
11126 02/09/2026 14:55:29 MB-L5-01Mainboard Lantai 5 L5-SHT-03-T SHT20 3 Temperature 32.10 °C
11127 02/09/2026 14:55:29 MB-L3-01Mainboard Lantai 3 L3-LUX-02 Illuminance / LUX 2 33.20 lux
11128 02/09/2026 14:55:29 MB-L3-01Mainboard Lantai 3 L3-SHT-01-RH SHT20 1 Humidity 48.70 %RH
11129 02/09/2026 14:55:29 MB-L5-01Mainboard Lantai 5 L5-BGT-02 Black Globe Temperature 2 29.80 °C
11130 02/09/2026 14:55:29 MB-L3-01Mainboard Lantai 3 L3-AI-02 Analog Input 2 3.12 V
11131 02/09/2026 14:55:29 MB-L5-01Mainboard Lantai 5 L5-SHT-01-T SHT20 1 Temperature 32.30 °C
11132 02/09/2026 14:55:29 MB-L3-01Mainboard Lantai 3 L3-LUX-04 Illuminance / LUX 4 69.60 lux
11133 02/09/2026 14:55:29 MB-L5-01Mainboard Lantai 5 L5-RAD-02 Radiation 2 1.00 W/m²
11134 02/09/2026 14:55:29 MB-L3-01Mainboard Lantai 3 L3-HFT-02 Heat Flow Temperature 2 29.00 °C
11135 02/09/2026 14:55:29 MB-L5-01Mainboard Lantai 5 L5-LUX-06 Illuminance / LUX 6 208.40 lux
11136 02/09/2026 14:55:29 MB-L5-01Mainboard Lantai 5 L5-LUX-04 Illuminance / LUX 4 211.70 lux
11137 02/09/2026 14:55:29 MB-L3-01Mainboard Lantai 3 L3-LUX-03 Illuminance / LUX 3 103.10 lux
11138 02/09/2026 14:55:29 MB-L3-01Mainboard Lantai 3 L3-AI-03 Analog Input 3 3.12 V
11139 02/09/2026 14:55:29 MB-L5-01Mainboard Lantai 5 L5-LUX-03 Illuminance / LUX 3 165.20 lux
11140 02/09/2026 14:55:29 MB-L3-01Mainboard Lantai 3 L3-SHT-03-RH SHT20 3 Humidity 49.30 %RH
11141 02/09/2026 14:55:29 MB-L5-01Mainboard Lantai 5 L5-SHT-02-RH SHT20 2 Humidity 48.60 %RH
11142 02/09/2026 14:55:29 MB-L3-01Mainboard Lantai 3 L3-SHT-02-RH SHT20 2 Humidity 48.60 %RH
11143 02/09/2026 14:55:29 MB-L5-01Mainboard Lantai 5 L5-BGT-01 Black Globe Temperature 1 29.90 °C
11144 02/09/2026 14:55:29 MB-L5-01Mainboard Lantai 5 L5-SHT-01-RH SHT20 1 Humidity 48.50 %RH
11145 02/09/2026 14:55:29 MB-L3-01Mainboard Lantai 3 L3-BGT-01 Black Globe Temperature 1 29.70 °C
11146 02/09/2026 14:55:29 MB-L3-01Mainboard Lantai 3 L3-LUX-01 Illuminance / LUX 1 24.30 lux
11147 02/09/2026 14:55:29 MB-L3-01Mainboard Lantai 3 L3-RAD-02 Radiation 2 1.00 W/m²
11148 02/09/2026 14:55:29 MB-L5-01Mainboard Lantai 5 L5-SHT-03-RH SHT20 3 Humidity 49.60 %RH
11149 02/09/2026 14:55:29 MB-L5-01Mainboard Lantai 5 L5-HFT-02 Heat Flow Temperature 2 29.90 °C
11150 02/09/2026 14:55:29 MB-L3-01Mainboard Lantai 3 L3-SHT-03-T SHT20 3 Temperature 31.80 °C
11151 02/09/2026 14:55:29 MB-L5-01Mainboard Lantai 5 L5-HFT-01 Heat Flow Temperature 1 30.20 °C
11152 02/09/2026 14:55:29 MB-L5-01Mainboard Lantai 5 L5-AI-06 Analog Input 6 3.05 V
11153 02/09/2026 14:55:29 MB-L3-01Mainboard Lantai 3 L3-AI-04 Analog Input 4 3.12 V
11154 02/09/2026 14:55:29 MB-L3-01Mainboard Lantai 3 L3-BGT-02 Black Globe Temperature 2 29.70 °C
11155 02/09/2026 14:55:29 MB-L3-01Mainboard Lantai 3 L3-RAD-01 Radiation 1 1.00 W/m²
11156 02/09/2026 14:55:29 MB-L5-01Mainboard Lantai 5 L5-AI-05 Analog Input 5 3.05 V
11157 02/09/2026 14:55:29 MB-L3-01Mainboard Lantai 3 L3-ST-01 Surface Temperature 1 29.80 °C
11158 02/09/2026 14:55:29 MB-L5-01Mainboard Lantai 5 L5-AI-04 Analog Input 4 3.05 V
11159 02/09/2026 14:55:29 MB-L5-01Mainboard Lantai 5 L5-ST-02 Surface Temperature 2 30.50 °C
11160 02/09/2026 14:55:29 MB-L5-01Mainboard Lantai 5 L5-AI-03 Analog Input 3 3.05 V
11161 02/09/2026 14:55:29 MB-L3-01Mainboard Lantai 3 L3-AI-05 Analog Input 5 3.12 V
11162 02/09/2026 14:55:29 MB-L3-01Mainboard Lantai 3 L3-SHT-02-T SHT20 2 Temperature 32.00 °C
11163 02/09/2026 14:55:29 MB-L5-01Mainboard Lantai 5 L5-ST-01 Surface Temperature 1 30.30 °C
11164 02/09/2026 14:55:27 MB-L5-01Mainboard Lantai 5 L5-LUX-05 Illuminance / LUX 5 390.10 lux
11165 02/09/2026 14:55:27 MB-L3-01Mainboard Lantai 3 L3-SHT-01-T SHT20 1 Temperature 32.10 °C
11166 02/09/2026 14:55:27 MB-L3-01Mainboard Lantai 3 L3-HFT-01 Heat Flow Temperature 1 29.50 °C
11167 02/09/2026 14:55:27 MB-L5-01Mainboard Lantai 5 L5-LUX-02 Illuminance / LUX 2 127.20 lux
11168 02/09/2026 14:55:27 MB-L5-01Mainboard Lantai 5 L5-BGT-03 Black Globe Temperature 3 29.80 °C
11169 02/09/2026 14:55:27 MB-L5-01Mainboard Lantai 5 L5-SHT-03-T SHT20 3 Temperature 32.20 °C
11170 02/09/2026 14:55:27 MB-L3-01Mainboard Lantai 3 L3-LUX-02 Illuminance / LUX 2 35.30 lux
11171 02/09/2026 14:55:27 MB-L3-01Mainboard Lantai 3 L3-SHT-01-RH SHT20 1 Humidity 48.50 %RH
11172 02/09/2026 14:55:27 MB-L5-01Mainboard Lantai 5 L5-BGT-02 Black Globe Temperature 2 29.80 °C
11173 02/09/2026 14:55:27 MB-L3-01Mainboard Lantai 3 L3-AI-02 Analog Input 2 3.12 V
11174 02/09/2026 14:55:27 MB-L5-01Mainboard Lantai 5 L5-SHT-01-T SHT20 1 Temperature 32.30 °C
11175 02/09/2026 14:55:27 MB-L3-01Mainboard Lantai 3 L3-LUX-04 Illuminance / LUX 4 76.60 lux
11176 02/09/2026 14:55:27 MB-L5-01Mainboard Lantai 5 L5-RAD-02 Radiation 2 1.00 W/m²
11177 02/09/2026 14:55:27 MB-L3-01Mainboard Lantai 3 L3-HFT-02 Heat Flow Temperature 2 29.00 °C
11178 02/09/2026 14:55:27 MB-L5-01Mainboard Lantai 5 L5-LUX-06 Illuminance / LUX 6 215.60 lux
11179 02/09/2026 14:55:27 MB-L5-01Mainboard Lantai 5 L5-LUX-04 Illuminance / LUX 4 206.70 lux
11180 02/09/2026 14:55:27 MB-L3-01Mainboard Lantai 3 L3-LUX-03 Illuminance / LUX 3 106.70 lux
11181 02/09/2026 14:55:27 MB-L3-01Mainboard Lantai 3 L3-AI-03 Analog Input 3 3.12 V
11182 02/09/2026 14:55:27 MB-L5-01Mainboard Lantai 5 L5-LUX-03 Illuminance / LUX 3 165.80 lux
11183 02/09/2026 14:55:27 MB-L3-01Mainboard Lantai 3 L3-SHT-03-RH SHT20 3 Humidity 49.30 %RH
11184 02/09/2026 14:55:27 MB-L5-01Mainboard Lantai 5 L5-SHT-02-RH SHT20 2 Humidity 48.50 %RH
11185 02/09/2026 14:55:27 MB-L3-01Mainboard Lantai 3 L3-SHT-02-RH SHT20 2 Humidity 48.40 %RH
11186 02/09/2026 14:55:27 MB-L5-01Mainboard Lantai 5 L5-BGT-01 Black Globe Temperature 1 29.90 °C
11187 02/09/2026 14:55:27 MB-L5-01Mainboard Lantai 5 L5-SHT-01-RH SHT20 1 Humidity 48.50 %RH
11188 02/09/2026 14:55:27 MB-L3-01Mainboard Lantai 3 L3-BGT-01 Black Globe Temperature 1 29.80 °C
11189 02/09/2026 14:55:27 MB-L3-01Mainboard Lantai 3 L3-LUX-01 Illuminance / LUX 1 26.70 lux
11190 02/09/2026 14:55:27 MB-L3-01Mainboard Lantai 3 L3-RAD-02 Radiation 2 1.00 W/m²
11191 02/09/2026 14:55:27 MB-L5-01Mainboard Lantai 5 L5-SHT-03-RH SHT20 3 Humidity 49.50 %RH
11192 02/09/2026 14:55:27 MB-L5-01Mainboard Lantai 5 L5-HFT-02 Heat Flow Temperature 2 30.00 °C
11193 02/09/2026 14:55:27 MB-L3-01Mainboard Lantai 3 L3-SHT-03-T SHT20 3 Temperature 31.80 °C
11194 02/09/2026 14:55:27 MB-L5-01Mainboard Lantai 5 L5-HFT-01 Heat Flow Temperature 1 30.20 °C
11195 02/09/2026 14:55:27 MB-L5-01Mainboard Lantai 5 L5-AI-06 Analog Input 6 3.05 V
11196 02/09/2026 14:55:27 MB-L3-01Mainboard Lantai 3 L3-AI-04 Analog Input 4 3.12 V
11197 02/09/2026 14:55:27 MB-L3-01Mainboard Lantai 3 L3-BGT-02 Black Globe Temperature 2 29.70 °C
11198 02/09/2026 14:55:27 MB-L3-01Mainboard Lantai 3 L3-RAD-01 Radiation 1 1.00 W/m²
11199 02/09/2026 14:55:27 MB-L5-01Mainboard Lantai 5 L5-AI-05 Analog Input 5 3.05 V
11200 02/09/2026 14:55:27 MB-L3-01Mainboard Lantai 3 L3-ST-01 Surface Temperature 1 29.80 °C
Menampilkan maksimal 100 data per halaman